[[{"header":{"parameterUnit":"m.s-1","parameterCategory":2,"la1":30.2991,"la2":30.254,"lo1":-89.0895,"lo2":-89.0444,"dy":0.0017,"dx":0.0017,"nx":28,"ny":28,"refTime":"2025-01-11T03:00:00:Z","depth":"0","parameterNumber":2,"parameterNumberName":"U-component_of_CURRENTS"},"data":[0,0,0,0,0,0,0,0,0,0,0,0,0,0,0,0,0,0,0,0,0,0,0,0,0,0,0,0,0,0,0,0,0,0,0,0,0,0,0,0,0,0,0,0,0,0,0,0,0,0,0,0,0,0,0,0,0,0,-0.2634,-0.2635,0,-0.2685,-0.2685,-0.2686,-0.2656,-0.2655,-0.2653,-0.2652,-0.2616,-0.2616,-0.2617,0,0,0,0,0,0,0,0,0,0,0,0,0,-0.2521,-0.2523,-0.2634,-0.2635,-0.2636,-0.2685,-0.2685,-0.2686,-0.2656,-0.2655,-0.2653,-0.2652,-0.2616,-0.2616,-0.2617,0,0,0,0,0,0,0,0,0,0,0,0,0,-0.2568,-0.2524,-0.2634,-0.2629,-0.263,-0.2685,-0.2685,-0.2686,-0.2656,-0.2654,-0.2653,-0.2651,-0.2616,-0.2616,-0.2617,-0.2653,0,0,-0.2617,-0.2617,0,0,0,0,0,0,0,0,-0.2566,-0.2572,-0.2629,-0.263,-0.263,-0.2665,-0.2633,-0.2672,-0.2657,-0.2643,-0.2652,-0.265,-0.2628,-0.2627,-0.2637,-0.2651,-0.265,-0.2617,-0.2617,-0.2617,-0.2618,0,0,0,0,0,0,0,-0.2562,-0.257,-0.2651,-0.263,-0.2631,-0.2628,-0.2632,-0.264,-0.2641,-0.2644,-0.2643,-0.2654,-0.2627,-0.2637,-0.2636,-0.2649,-0.2617,-0.2617,-0.2618,-0.2618,-0.2682,-0.2684,0,0,0,0,0,0,-0.2564,-0.2567,-0.265,-0.2653,-0.2596,-0.2632,-0.2636,-0.2653,-0.2642,-0.2641,-0.2655,-0.2652,-0.2638,-0.2636,-0.2635,-0.2667,-0.2617,-0.2618,-0.2618,-0.2681,-0.2683,-0.2684,0,0,0,0,0,0,-0.2562,-0.2571,-0.2648,-0.2613,-0.2623,-0.2636,-0.2655,-0.2655,-0.2659,-0.2652,-0.2648,-0.2657,-0.2636,-0.2634,-0.2645,-0.2665,-0.2618,-0.2618,-0.2679,-0.2681,-0.2683,-0.2737,0,0,0,0,0,0,-0.2558,-0.257,-0.2577,-0.2613,-0.2625,-0.2683,-0.2657,-0.2657,-0.267,-0.2666,-0.2653,-0.2649,-0.2635,-0.2645,-0.2645,-0.2664,-0.2618,-0.2677,-0.268,-0.2683,-0.2733,-0.2741,-0.2748,0,0,0,0,0,-0.2554,-0.2576,-0.2577,-0.2587,-0.2636,-0.2684,-0.269,-0.269,-0.2672,-0.2684,-0.2675,-0.2649,-0.2664,-0.2647,-0.2647,-0.2666,-0.2675,-0.2679,-0.2682,-0.273,-0.2739,-0.2747,0,0,0,0,0,0,-0.2529,-0.2577,-0.2578,-0.2612,-0.2645,-0.268,-0.2691,-0.2695,-0.27,-0.2688,-0.2671,-0.2667,-0.2686,-0.2674,-0.2656,-0.2696,-0.2665,-0.2669,-0.2702,-0.271,-0.2717,-0.2712,-0.2618,0,0,0,0,0,-0.2529,-0.2554,-0.2601,-0.2624,-0.2643,-0.2666,-0.2683,-0.269,-0.2705,-0.2704,-0.2699,-0.2695,-0.2706,-0.2704,-0.2712,-0.2733,-0.2701,-0.2746,-0.2753,-0.2759,-0.2757,-0.2743,-0.2748,-0.2696,-0.2696,-0.2696,0,0,-0.2524,-0.2554,-0.2566,-0.262,-0.2641,-0.2683,-0.2671,-0.2703,-0.273,-0.2701,-0.2723,-0.2722,-0.272,-0.2746,-0.2752,-0.2732,-0.2756,-0.2764,-0.2769,-0.2763,-0.2747,-0.2752,-0.2756,-0.2699,-0.2698,-0.2698,0,0,-0.2536,-0.2556,-0.2584,-0.262,-0.2665,-0.2689,-0.27,-0.274,-0.2746,-0.2781,-0.2766,-0.2776,-0.2791,-0.2795,-0.2798,-0.2852,-0.2799,-0.2854,-0.2878,-0.2866,-0.2869,-0.2872,-0.2824,-0.2822,-0.2851,-0.2852,-0.2852,0,-0.2525,-0.257,-0.2599,-0.2642,-0.2671,-0.2694,-0.2735,-0.276,-0.2795,-0.2804,-0.2791,-0.2822,-0.2817,-0.2847,-0.2865,-0.2867,-0.2835,-0.2843,-0.2873,-0.2875,-0.2877,-0.2827,-0.2824,-0.2855,-0.2854,-0.2854,-0.2854,0,-0.2565,-0.2601,-0.2623,-0.2683,-0.272,-0.2758,-0.2806,-0.2833,-0.2842,-0.286,-0.2889,-0.2892,-0.2901,-0.2912,-0.2903,-0.2924,-0.2888,-0.2886,-0.2846,-0.2885,-0.283,-0.2826,-0.2859,-0.2858,-0.2857,-0.2856,0,0,-0.2534,-0.2631,-0.2635,-0.2665,-0.2743,-0.2775,-0.2833,-0.2885,-0.2902,-0.2934,-0.2951,-0.2985,-0.297,-0.2973,-0.2966,-0.2959,-0.2943,-0.2927,-0.2924,-0.2867,-0.2883,-0.2777,-0.2761,-0.2943,-0.2943,-0.2943,-0.2832,0,-0.2549,-0.2626,-0.2676,-0.274,-0.2781,-0.2831,-0.2878,-0.2925,-0.2951,-0.2973,-0.2985,-0.2998,-0.2999,-0.2993,-0.2993,-0.2959,-0.2937,-0.2971,-0.2862,-0.2858,-0.2751,-0.2755,-0.264,-0.2525,-0.2828,-0.2827,-0.2827,0,-0.2563,-0.2613,-0.2681,-0.2762,-0.2782,-0.2823,-0.2885,-0.2932,-0.298,-0.2997,-0.302,-0.3019,-0.3026,-0.3013,-0.2973,-0.299,-0.2939,-0.2908,-0.2903,-0.2781,-0.2745,-0.2539,-0.2506,-0.2494,-0.282,-0.282,-0.2821,0,-0.2511,-0.261,-0.2657,-0.2689,-0.2789,-0.2816,-0.2862,-0.2926,-0.2954,-0.2999,-0.3007,-0.3025,-0.301,-0.2982,-0.2924,-0.2943,-0.2853,-0.287,-0.2723,-0.2714,-0.2582,-0.256,-0.2513,-0.2828,-0.2828,-0.2829,-0.2829,0,-0.2501,-0.2532,-0.2631,-0.2655,-0.2693,-0.2779,-0.2813,-0.2865,-0.2924,-0.2941,-0.2998,-0.2997,-0.3,-0.2955,-0.2913,-0.2787,-0.2838,-0.2714,-0.268,-0.2595,-0.2578,-0.2533,-0.2579,-0.2824,-0.2825,-0.2826,-0.2827,0,-0.2425,-0.2501,-0.2548,-0.2644,-0.2668,-0.2688,-0.2772,-0.2792,-0.2868,-0.289,-0.2901,-0.2953,-0.2896,-0.2868,-0.2797,-0.2742,-0.2601,-0.2595,-0.2475,-0.2429,-0.2285,-0.2338,-0.2255,-0.2182,-0.2417,-0.2414,-0.2411,0,-0.239,-0.241,-0.2502,-0.2515,-0.2551,-0.2599,-0.2625,-0.2735,-0.2763,-0.285,-0.2844,-0.2827,-0.2773,-0.2636,-0.2539,-0.2413,-0.2453,-0.2245,-0.2271,-0.2244,-0.228,-0.2334,-0.2283,-0.2111,-0.2106,-0.2102,-0.2099,0,-0.23,-0.2332,-0.2364,-0.2398,-0.2427,-0.2464,-0.2517,-0.2535,-0.2653,-0.2675,-0.268,-0.2647,-0.2543,-0.2373,-0.223,-0.2152,-0.2198,-0.2155,-0.2169,-0.2064,-0.2079,-0.2001,-0.2207,-0.2063,-0.2067,-0.2069,-0.2071,-0.2073,-0.2201,-0.2196,-0.2237,-0.2251,-0.2285,-0.2294,-0.2268,-0.2338,-0.2352,-0.2352,-0.2442,-0.2357,-0.2272,-0.2051,-0.196,-0.1803,-0.1906,-0.1765,-0.1835,-0.1894,-0.1818,-0.1922,-0.1723,-0.1725,-0.1726,-0.1727,-0.1728,0,-0.2066,-0.2076,-0.2085,-0.2097,-0.2064,-0.2137,-0.216,-0.2105,-0.2056,-0.2105,-0.2073,-0.201,-0.1835,-0.1778,-0.1634,-0.1534,-0.1504,-0.151,-0.1582,-0.1546,-0.1651,-0.1631,-0.1352,-0.1352,-0.1352,-0.1352,-0.1352,-0.1353,-0.1996,-0.1954,-0.1961,-0.1864,-0.1861,-0.1767,-0.174,-0.1689,-0.1687,-0.1612,-0.1613,-0.1653,-0.1659,-0.1739,-0.1578,-0.147,-0.1458,-0.1398,-0.1443,-0.1561,-0.1592,-0.1621,-0.1611,-0.1333,-0.1333,-0.1258,-0.1258,-0.1258]},{"header":{"parameterUnit":"m.s-1","parameterCategory":2,"la1":30.2991,"la2":30.254,"lo1":-89.0895,"lo2":-89.0444,"dy":0.0017,"dx":0.0017,"nx":28,"ny":28,"refTime":"2025-01-11T03:00:00:Z","depth":"0","parameterNumber":3,"parameterNumberName":"V-component_of_CURRENTS"},"data":[0,0,0,0,0,0,0,0,0,0,0,0,0,0,0,0,0,0,0,0,0,0,0,0,0,0,0,0,0,0,0,0,0,0,0,0,0,0,0,0,0,0,0,0,0,0,0,0,0,0,0,0,0,0,0,0,0,0,-0.0337,-0.0336,0,-0.0265,-0.0264,-0.0263,-0.0209,-0.0208,-0.0208,-0.0207,-0.008,-0.0078,-0.0075,0,0,0,0,0,0,0,0,0,0,0,0,0,-0.0383,-0.0383,-0.0337,-0.0336,-0.0335,-0.0265,-0.0264,-0.0263,-0.0209,-0.0208,-0.0208,-0.0207,-0.0081,-0.0078,-0.0074,0,0,0,0,0,0,0,0,0,0,0,0,0,-0.0341,-0.0383,-0.0337,-0.0301,-0.0297,-0.0265,-0.0264,-0.0263,-0.0209,-0.0208,-0.0208,-0.0207,-0.0083,-0.0078,-0.0074,-0.0058,0,0,-0.006,-0.0058,0,0,0,0,0,0,0,0,-0.0344,-0.034,-0.0307,-0.0303,-0.0299,-0.0246,-0.0234,-0.0192,-0.0209,-0.0241,-0.0207,-0.0207,-0.0132,-0.0123,-0.011,-0.0052,-0.0046,-0.006,-0.0057,-0.0055,-0.0054,0,0,0,0,0,0,0,-0.0347,-0.0342,-0.0307,-0.0306,-0.0301,-0.0273,-0.0267,-0.0226,-0.0189,-0.0238,-0.0234,-0.0228,-0.0129,-0.0115,-0.0107,-0.0045,-0.006,-0.0056,-0.0053,-0.0051,0.0057,0.0058,0,0,0,0,0,0,-0.0361,-0.0345,-0.031,-0.0305,-0.0322,-0.0273,-0.0266,-0.0263,-0.019,-0.0179,-0.0229,-0.0226,-0.0123,-0.0112,-0.0102,-0.0076,-0.0055,-0.0051,-0.0048,0.0057,0.0058,0.0058,0,0,0,0,0,0,-0.0362,-0.0359,-0.0313,-0.0324,-0.0317,-0.0273,-0.027,-0.0262,-0.0248,-0.0184,-0.0172,-0.0224,-0.0122,-0.0108,-0.0068,-0.0071,-0.0049,-0.0045,0.0057,0.0057,0.0058,-0.0026,0,0,0,0,0,0,-0.0364,-0.036,-0.0364,-0.0325,-0.0316,-0.0304,-0.027,-0.0261,-0.0245,-0.0241,-0.0176,-0.0163,-0.012,-0.0075,-0.0064,-0.0064,-0.0041,0.0057,0.0057,0.0058,-0.0023,-0.0029,-0.0033,0,0,0,0,0,-0.0366,-0.038,-0.0365,-0.036,-0.0323,-0.0305,-0.0298,-0.0263,-0.0246,-0.0247,-0.0199,-0.0165,-0.0065,-0.0072,-0.0058,-0.0058,0.0057,0.0057,0.0058,-0.0021,-0.0028,-0.0033,0,0,0,0,0,0,-0.0403,-0.0374,-0.0357,-0.0361,-0.0338,-0.0296,-0.0295,-0.027,-0.0234,-0.0228,-0.0166,-0.015,-0.0116,-0.0074,-0.0084,-0.0023,0.0003,0.0006,-0.0061,-0.0067,-0.0072,-0.009,-0.0037,0,0,0,0,0,-0.0414,-0.0415,-0.0381,-0.0385,-0.0376,-0.0336,-0.0324,-0.0302,-0.0265,-0.0249,-0.0203,-0.0149,-0.0103,-0.0077,-0.0033,-0.0002,0.0047,0.001,0.0005,0.0001,-0.0004,0.0066,0.0066,0.0059,0.0059,0.0059,0,0,-0.0428,-0.0413,-0.0413,-0.0392,-0.037,-0.0371,-0.0328,-0.0317,-0.0311,-0.024,-0.0218,-0.0167,-0.01,-0.0066,-0.0046,-0.0031,0.0029,0.0001,-0.0004,-0.0005,0.0066,0.0067,0.0068,0.0059,0.0059,0.0059,0,0,-0.0467,-0.0445,-0.0463,-0.045,-0.0427,-0.04,-0.0401,-0.0364,-0.034,-0.0313,-0.0258,-0.0209,-0.0146,-0.0094,-0.006,-0.0062,-0.0001,-0.0048,-0.0084,-0.0018,-0.0017,-0.0015,0.0045,0.0053,-0.0048,-0.0048,-0.0048,0,-0.0487,-0.0502,-0.0465,-0.048,-0.0476,-0.042,-0.0438,-0.0406,-0.0359,-0.0337,-0.0318,-0.0211,-0.0157,-0.0101,-0.0104,-0.0073,-0.003,-0.0073,-0.0026,-0.0023,-0.002,0.0042,0.0052,-0.0052,-0.0052,-0.0051,-0.0051,0,-0.0539,-0.055,-0.056,-0.0558,-0.0547,-0.0553,-0.0508,-0.0487,-0.0449,-0.0409,-0.0351,-0.0273,-0.0207,-0.0182,-0.0145,-0.0096,-0.0071,-0.0045,-0.0017,-0.0025,0.0042,0.0053,-0.0058,-0.0056,-0.0055,-0.0054,0,0,-0.0584,-0.0597,-0.0599,-0.0615,-0.059,-0.0588,-0.0572,-0.0538,-0.0521,-0.0459,-0.0427,-0.0343,-0.0291,-0.0248,-0.0186,-0.0129,-0.0072,-0.0089,-0.0084,-0.004,0.0071,0.011,0.0127,-0.0042,-0.004,-0.0039,0.0108,0,-0.0637,-0.0691,-0.0673,-0.0712,-0.0735,-0.068,-0.067,-0.0627,-0.0571,-0.0523,-0.0424,-0.0371,-0.0317,-0.0286,-0.022,-0.0109,-0.0046,-0.0114,0.0082,0.0088,0.0115,0.014,0.0195,0.0332,0.0119,0.0121,0.0122,0,-0.0694,-0.0723,-0.078,-0.0793,-0.0796,-0.0801,-0.0766,-0.0748,-0.0657,-0.0611,-0.0531,-0.0451,-0.0353,-0.0309,-0.0123,-0.0171,-0.0062,0.0026,0.0035,0.0108,0.0149,0.0309,0.0362,0.0555,0.014,0.0139,0.0138,0,-0.0754,-0.0794,-0.0844,-0.085,-0.0853,-0.0856,-0.0844,-0.0776,-0.0756,-0.0663,-0.0629,-0.0499,-0.0426,-0.0281,-0.0097,-0.011,0.0112,0.0124,0.0268,0.0272,0.0377,0.0388,0.0632,0.0258,0.0258,0.0258,0.0257,0,-0.082,-0.0857,-0.0877,-0.0906,-0.095,-0.0921,-0.0934,-0.0895,-0.0832,-0.0803,-0.068,-0.0616,-0.0417,-0.0262,-0.0106,0.0122,0.0116,0.027,0.0317,0.035,0.0356,0.0575,0.0643,0.0263,0.0262,0.0261,0.026,0,-0.0881,-0.0895,-0.0955,-0.0978,-0.0985,-0.1014,-0.101,-0.1008,-0.0937,-0.0892,-0.0867,-0.0695,-0.0488,-0.0273,-0.0019,0.0117,0.0453,0.0406,0.0426,0.0472,0.0758,0.0817,0.1097,0.1217,0.0579,0.0581,0.0583,0,-0.0918,-0.0957,-0.1016,-0.1053,-0.1067,-0.1099,-0.1115,-0.1069,-0.1058,-0.0931,-0.0911,-0.0707,-0.0538,-0.0148,0.0131,0.0428,0.0573,0.0637,0.0622,0.0796,0.0898,0.0941,0.1024,0.0736,0.0739,0.0741,0.0743,0,-0.0982,-0.1002,-0.1051,-0.1134,-0.1172,-0.1213,-0.1226,-0.1235,-0.1161,-0.1089,-0.0952,-0.0805,-0.0414,-0.0046,0.0335,0.0514,0.079,0.069,0.0886,0.1054,0.1106,0.1236,0.0608,0.0763,0.0761,0.0759,0.0758,0.0757,-0.1015,-0.107,-0.1133,-0.1206,-0.1258,-0.1306,-0.1323,-0.1305,-0.1266,-0.113,-0.0989,-0.0714,-0.0189,0.0364,0.0571,0.1028,0.098,0.1166,0.1227,0.1258,0.1368,0.0772,0.0961,0.0961,0.096,0.0959,0.0959,0,-0.1052,-0.1116,-0.1198,-0.128,-0.1342,-0.1352,-0.1377,-0.1351,-0.1286,-0.1114,-0.0935,-0.034,0.019,0.0673,0.1302,0.1556,0.1618,0.1683,0.178,0.1843,0.1347,0.1347,0.1611,0.1611,0.1611,0.1611,0.161,0.161,-0.1072,-0.116,-0.1209,-0.1324,-0.1378,-0.1416,-0.1422,-0.1354,-0.1225,-0.0895,-0.0556,-0.0291,0.0411,0.142,0.2016,0.2075,0.2307,0.2284,0.2399,0.2071,0.2027,0.1986,0.2006,0.2404,0.2405,0.2899,0.2903,0.2907]}],[{"header":{"parameterUnit":"m.s-1","parameterCategory":2,"la1":30.2991,"la2":30.254,"lo1":-89.0895,"lo2":-89.0444,"dy":0.0017,"dx":0.0017,"nx":28,"ny":28,"refTime":"2025-01-11T03:00:00:Z","depth":"2","parameterNumber":2,"parameterNumberName":"U-component_of_CURRENTS"},"data":[0,0,0,0,0,0,0,0,0,0,0,0,0,0,0,0,0,0,0,0,0,0,0,0,0,0,0,0,0,0,0,0,0,0,0,0,0,0,0,0,0,0,0,0,0,0,0,0,0,0,0,0,0,0,0,0,0,0,-0.2422,-0.2422,0,-0.2469,-0.2469,-0.2469,-0.2451,-0.245,-0.2449,-0.2448,-0.2439,-0.2439,-0.244,0,0,0,0,0,0,0,0,0,0,0,0,0,-0.2331,-0.2333,-0.2422,-0.2422,-0.2423,-0.2468,-0.2469,-0.2469,-0.2451,-0.245,-0.2449,-0.2448,-0.2438,-0.2439,-0.244,0,0,0,0,0,0,0,0,0,0,0,0,0,-0.2372,-0.2333,-0.2421,-0.2421,-0.2422,-0.2468,-0.2469,-0.2469,-0.2451,-0.245,-0.2448,-0.2447,-0.2438,-0.2439,-0.244,-0.2472,0,0,-0.2442,-0.2443,0,0,0,0,0,0,0,0,-0.2369,-0.2375,-0.242,-0.2421,-0.2422,-0.2454,-0.2434,-0.2468,-0.2451,-0.2438,-0.2448,-0.2446,-0.2441,-0.2442,-0.2451,-0.2472,-0.2471,-0.2443,-0.2443,-0.2443,-0.2444,0,0,0,0,0,0,0,-0.2367,-0.2373,-0.2438,-0.2421,-0.2422,-0.2424,-0.2428,-0.244,-0.2444,-0.2439,-0.2438,-0.2447,-0.244,-0.245,-0.2451,-0.2471,-0.2443,-0.2443,-0.2444,-0.2444,-0.2522,-0.2523,0,0,0,0,0,0,-0.2366,-0.237,-0.2437,-0.244,-0.2394,-0.2427,-0.2431,-0.2443,-0.2445,-0.2445,-0.2448,-0.2446,-0.245,-0.245,-0.245,-0.2491,-0.2443,-0.2444,-0.2445,-0.252,-0.2522,-0.2524,0,0,0,0,0,0,-0.2364,-0.2372,-0.2435,-0.2407,-0.2415,-0.243,-0.2444,-0.2445,-0.2453,-0.2453,-0.2451,-0.2454,-0.2448,-0.2449,-0.2469,-0.249,-0.2445,-0.2446,-0.2518,-0.2521,-0.2523,-0.257,0,0,0,0,0,0,-0.2361,-0.2371,-0.2377,-0.2407,-0.2417,-0.2466,-0.2446,-0.2447,-0.2462,-0.2459,-0.2458,-0.2456,-0.2447,-0.2468,-0.247,-0.249,-0.2446,-0.2516,-0.2519,-0.2522,-0.2567,-0.2574,-0.258,0,0,0,0,0,-0.2358,-0.2375,-0.2377,-0.2385,-0.2426,-0.2467,-0.2473,-0.2476,-0.2463,-0.2476,-0.2476,-0.2456,-0.2487,-0.247,-0.2472,-0.2493,-0.2515,-0.2518,-0.2522,-0.2564,-0.2572,-0.258,0,0,0,0,0,0,-0.2338,-0.2376,-0.2378,-0.2405,-0.2435,-0.2465,-0.2476,-0.2482,-0.2494,-0.2486,-0.2477,-0.2477,-0.2503,-0.2497,-0.2478,-0.2525,-0.2497,-0.2501,-0.2528,-0.2537,-0.2543,-0.2534,-0.2447,0,0,0,0,0,-0.2338,-0.2358,-0.2397,-0.2416,-0.2432,-0.2455,-0.247,-0.2478,-0.2496,-0.2499,-0.2501,-0.2506,-0.2523,-0.2526,-0.2539,-0.2565,-0.2539,-0.258,-0.2587,-0.2593,-0.2588,-0.2585,-0.2591,-0.2535,-0.2535,-0.2535,0,0,-0.2334,-0.2358,-0.2368,-0.2413,-0.2432,-0.2469,-0.246,-0.249,-0.2516,-0.2497,-0.2526,-0.2532,-0.2537,-0.2567,-0.2578,-0.256,-0.2593,-0.2597,-0.2601,-0.2594,-0.2589,-0.2595,-0.2599,-0.2537,-0.2537,-0.2536,0,0,-0.2344,-0.236,-0.2382,-0.2414,-0.2454,-0.2475,-0.2486,-0.2524,-0.2534,-0.2572,-0.2564,-0.2582,-0.2607,-0.2615,-0.2622,-0.2674,-0.2632,-0.2679,-0.27,-0.2698,-0.2702,-0.2706,-0.2665,-0.2664,-0.2678,-0.2678,-0.2678,0,-0.2336,-0.237,-0.2395,-0.2432,-0.2457,-0.2481,-0.2516,-0.2542,-0.258,-0.2593,-0.2585,-0.2628,-0.2631,-0.2666,-0.2682,-0.2688,-0.2664,-0.2668,-0.2705,-0.2708,-0.271,-0.2668,-0.2666,-0.2681,-0.268,-0.268,-0.268,0,-0.2366,-0.2396,-0.2414,-0.2465,-0.25,-0.2533,-0.2578,-0.2608,-0.2622,-0.2642,-0.268,-0.2691,-0.2709,-0.2722,-0.2717,-0.2744,-0.2712,-0.2715,-0.268,-0.2718,-0.2671,-0.2669,-0.2684,-0.2684,-0.2683,-0.2682,0,0,-0.2336,-0.2418,-0.2422,-0.2449,-0.2518,-0.2547,-0.2603,-0.2653,-0.2674,-0.2712,-0.2736,-0.2776,-0.277,-0.2777,-0.2776,-0.2777,-0.2771,-0.2752,-0.275,-0.2701,-0.2735,-0.2633,-0.2619,-0.2779,-0.2779,-0.2779,-0.2688,0,-0.2346,-0.2409,-0.2453,-0.251,-0.2544,-0.2593,-0.2639,-0.2688,-0.2719,-0.2749,-0.277,-0.2792,-0.2795,-0.2797,-0.2804,-0.2783,-0.2769,-0.2793,-0.2713,-0.271,-0.2607,-0.2616,-0.2434,-0.2331,-0.2686,-0.2685,-0.2685,0,-0.2354,-0.2396,-0.2453,-0.2525,-0.2544,-0.2582,-0.2645,-0.2692,-0.2748,-0.277,-0.2803,-0.2812,-0.2829,-0.282,-0.2801,-0.2813,-0.2775,-0.2753,-0.2749,-0.2634,-0.2604,-0.2354,-0.2313,-0.268,-0.268,-0.2681,-0.2681,0,-0.2305,-0.2391,-0.243,-0.2458,-0.2548,-0.2576,-0.2621,-0.2688,-0.2719,-0.2775,-0.2789,-0.2821,-0.2819,-0.2805,-0.2764,-0.2781,-0.2717,-0.2734,-0.2602,-0.2593,-0.2411,-0.2385,-0.2707,-0.2707,-0.2708,-0.2708,-0.2708,0,-0.2291,-0.2318,-0.2407,-0.2426,-0.2462,-0.2542,-0.2578,-0.2632,-0.2697,-0.2718,-0.2784,-0.2791,-0.2815,-0.2787,-0.2756,-0.2655,-0.2708,-0.2592,-0.2566,-0.2421,-0.2399,-0.2687,-0.2686,-0.2704,-0.2705,-0.2706,-0.2706,0,-0.2221,-0.2287,-0.2326,-0.2414,-0.2438,-0.2459,-0.2541,-0.2562,-0.2643,-0.2672,-0.2687,-0.2753,-0.2717,-0.2707,-0.2663,-0.2618,-0.255,-0.2498,-0.2305,-0.2258,-0.2427,-0.243,-0.2345,-0.2341,-0.2337,-0.2334,-0.2332,0,-0.2189,-0.2204,-0.2286,-0.2297,-0.233,-0.2378,-0.2403,-0.2511,-0.2538,-0.2634,-0.2631,-0.2637,-0.2593,-0.2494,-0.2415,-0.2313,-0.2423,-0.21,-0.211,-0.2408,-0.2392,-0.24,-0.2408,-0.1879,-0.1873,-0.1868,-0.1864,0,-0.2106,-0.2135,-0.2163,-0.219,-0.2217,-0.2249,-0.23,-0.2316,-0.2431,-0.2454,-0.2467,-0.2444,-0.2371,-0.219,-0.2078,-0.2009,-0.2109,-0.1995,-0.2347,-0.2008,-0.1964,-0.195,-0.1973,-0.182,-0.1824,-0.1827,-0.183,-0.1832,-0.2023,-0.2016,-0.2049,-0.2058,-0.209,-0.2091,-0.2063,-0.2124,-0.2133,-0.2134,-0.2229,-0.2132,-0.2113,-0.1838,-0.1726,-0.1645,-0.1799,-0.1735,-0.1752,-0.1774,-0.1746,-0.1699,-0.1497,-0.1499,-0.1501,-0.1503,-0.1505,0,-0.1907,-0.191,-0.1912,-0.1916,-0.1883,-0.1951,-0.1963,-0.1904,-0.1849,-0.188,-0.1854,-0.1655,-0.1517,-0.1504,-0.1303,-0.1258,-0.1265,-0.1214,-0.1236,-0.128,-0.1318,-0.127,-0.0893,-0.0891,-0.089,-0.0888,0,0,-0.1847,-0.1802,-0.1799,-0.1702,-0.1698,-0.1608,-0.1577,-0.1517,-0.1496,-0.1396,-0.1349,-0.1442,-0.1461,-0.119,-0.1115,-0.0974,-0.1119,-0.0918,-0.1407,-0.1477,-0.1514,-0.1612,-0.1585,0,0,0,0,0]},{"header":{"parameterUnit":"m.s-1","parameterCategory":2,"la1":30.2991,"la2":30.254,"lo1":-89.0895,"lo2":-89.0444,"dy":0.0017,"dx":0.0017,"nx":28,"ny":28,"refTime":"2025-01-11T03:00:00:Z","depth":"2","parameterNumber":3,"parameterNumberName":"V-component_of_CURRENTS"},"data":[0,0,0,0,0,0,0,0,0,0,0,0,0,0,0,0,0,0,0,0,0,0,0,0,0,0,0,0,0,0,0,0,0,0,0,0,0,0,0,0,0,0,0,0,0,0,0,0,0,0,0,0,0,0,0,0,0,0,-0.0242,-0.0241,0,-0.018,-0.0179,-0.0178,-0.013,-0.013,-0.0129,-0.0129,-0.0015,-0.0013,-0.001,0,0,0,0,0,0,0,0,0,0,0,0,0,-0.0276,-0.0276,-0.0242,-0.0241,-0.0241,-0.018,-0.0179,-0.0178,-0.013,-0.013,-0.0129,-0.0129,-0.0016,-0.0013,-0.001,0,0,0,0,0,0,0,0,0,0,0,0,0,-0.0241,-0.0276,-0.0242,-0.021,-0.0207,-0.018,-0.0179,-0.0178,-0.013,-0.013,-0.0129,-0.0128,-0.0017,-0.0014,-0.001,0.0004,0,0,0.0003,0.0004,0,0,0,0,0,0,0,0,-0.0244,-0.024,-0.0215,-0.0212,-0.0208,-0.0163,-0.015,-0.0115,-0.013,-0.0158,-0.0129,-0.0128,-0.0061,-0.0054,-0.0042,0.0009,0.0014,0.0003,0.0005,0.0007,0.0008,0,0,0,0,0,0,0,-0.0246,-0.0242,-0.0216,-0.0215,-0.021,-0.0184,-0.0179,-0.0143,-0.0112,-0.0156,-0.0152,-0.0147,-0.0059,-0.0046,-0.0039,0.0016,0.0003,0.0006,0.0009,0.001,0.0103,0.0103,0,0,0,0,0,0,-0.0259,-0.0245,-0.0218,-0.0215,-0.0226,-0.0184,-0.0178,-0.0177,-0.0113,-0.0104,-0.0148,-0.0145,-0.0054,-0.0044,-0.0035,-0.0015,0.0007,0.0011,0.0013,0.0102,0.0103,0.0103,0,0,0,0,0,0,-0.026,-0.0257,-0.0221,-0.0229,-0.0222,-0.0185,-0.0184,-0.0176,-0.0165,-0.0108,-0.0097,-0.0144,-0.0053,-0.0041,-0.0006,-0.001,0.0013,0.0016,0.0102,0.0102,0.0103,0.0025,0,0,0,0,0,0,-0.0261,-0.0258,-0.0263,-0.023,-0.0223,-0.0215,-0.0184,-0.0176,-0.0163,-0.0159,-0.0101,-0.009,-0.0051,-0.0013,-0.0002,-0.0004,0.0019,0.0102,0.0102,0.0103,0.0027,0.0022,0.0018,0,0,0,0,0,-0.0263,-0.0277,-0.0264,-0.026,-0.0231,-0.0216,-0.021,-0.0179,-0.0164,-0.0165,-0.0123,-0.0092,-0.0004,-0.001,0.0002,0.0002,0.0102,0.0102,0.0103,0.0029,0.0023,0.0018,0,0,0,0,0,0,-0.0295,-0.0272,-0.0257,-0.0264,-0.0244,-0.0208,-0.0207,-0.0186,-0.0155,-0.0149,-0.0093,-0.008,-0.0051,-0.0013,-0.002,0.003,0.0055,0.0058,-0.0004,-0.001,-0.0014,-0.0029,0.0023,0,0,0,0,0,-0.0305,-0.0308,-0.028,-0.0285,-0.0278,-0.0244,-0.0234,-0.0215,-0.0183,-0.0169,-0.0128,-0.0081,-0.0041,-0.0018,0.0021,0.0046,0.0093,0.0056,0.0051,0.0047,0.0044,0.0107,0.0108,0.0103,0.0103,0.0103,0,0,-0.0318,-0.0306,-0.0308,-0.0292,-0.0273,-0.0276,-0.0236,-0.0229,-0.0225,-0.0161,-0.0143,-0.0099,-0.0039,-0.0011,0.0006,0.002,0.0073,0.0047,0.0042,0.0043,0.0108,0.0108,0.0109,0.0103,0.0103,0.0103,0,0,-0.0354,-0.0337,-0.0354,-0.0344,-0.0325,-0.0303,-0.0304,-0.0272,-0.0252,-0.0231,-0.0181,-0.0139,-0.0085,-0.004,-0.001,-0.0015,0.0043,-0.0003,-0.0036,0.0025,0.0026,0.0027,0.0083,0.009,-0.0003,-0.0003,-0.0003,0,-0.0371,-0.0388,-0.0357,-0.0372,-0.0369,-0.032,-0.0339,-0.0312,-0.0272,-0.0254,-0.0236,-0.0144,-0.0096,-0.0049,-0.0052,-0.0026,0.0015,-0.0023,0.0018,0.002,0.0023,0.008,0.0089,-0.0007,-0.0006,-0.0006,-0.0006,0,-0.0419,-0.0432,-0.0441,-0.0443,-0.0435,-0.0443,-0.0405,-0.0389,-0.0357,-0.0322,-0.0273,-0.0204,-0.0147,-0.0125,-0.0091,-0.0049,-0.0024,-0.0,0.0027,0.0018,0.008,0.009,-0.0012,-0.0011,-0.001,-0.0009,0,0,-0.0459,-0.0474,-0.0477,-0.0494,-0.0475,-0.0476,-0.0465,-0.0439,-0.0427,-0.0372,-0.0347,-0.0273,-0.0227,-0.0189,-0.0133,-0.0079,-0.0026,-0.0041,-0.0036,0.0006,0.0105,0.0131,0.0146,0.0001,0.0003,0.0004,0.0139,0,-0.0507,-0.0559,-0.0545,-0.0584,-0.0607,-0.0562,-0.0556,-0.0522,-0.0475,-0.0436,-0.0347,-0.0303,-0.0253,-0.0224,-0.0164,-0.0062,-0.0002,-0.0065,0.0116,0.0122,0.0138,0.0157,0.0134,0.0254,0.015,0.0152,0.0153,0,-0.0558,-0.0587,-0.0641,-0.0659,-0.0663,-0.0672,-0.0648,-0.0636,-0.056,-0.0521,-0.0451,-0.038,-0.0291,-0.0248,-0.0077,-0.0122,-0.0018,0.0065,0.0073,0.0132,0.0167,0.0249,0.0278,0.0171,0.017,0.0168,0.0167,0,-0.0611,-0.0652,-0.0699,-0.0707,-0.0716,-0.0722,-0.0716,-0.0662,-0.0649,-0.0569,-0.0542,-0.0427,-0.0362,-0.0226,-0.0056,-0.0066,0.0138,0.0151,0.0278,0.0281,0.0316,0.032,0.0279,0.0278,0.0278,0.0278,0.0277,0,-0.067,-0.0706,-0.0729,-0.0757,-0.0802,-0.0781,-0.08,-0.0769,-0.072,-0.0701,-0.0591,-0.0537,-0.0353,-0.0214,-0.0066,0.0139,0.0137,0.028,0.0321,0.0288,0.0288,0.0257,0.0253,0.0283,0.0282,0.0281,0.028,0,-0.0723,-0.0738,-0.0797,-0.0823,-0.0833,-0.0863,-0.087,-0.0873,-0.0816,-0.0785,-0.0763,-0.0612,-0.0427,-0.023,0.0007,0.013,0.032,0.0396,0.0341,0.0374,0.0424,0.0414,0.0546,0.0548,0.055,0.0551,0.0552,0,-0.0756,-0.0792,-0.0852,-0.0889,-0.0905,-0.0941,-0.096,-0.0927,-0.0924,-0.0823,-0.0808,-0.0628,-0.0481,-0.0127,0.0119,0.039,0.039,0.0518,0.0498,0.0426,0.0453,0.044,0.0429,0.0518,0.0519,0.052,0.052,0,-0.0814,-0.0833,-0.088,-0.096,-0.1001,-0.1045,-0.1065,-0.1077,-0.1022,-0.0964,-0.0849,-0.0721,-0.0383,-0.0086,0.0254,0.0407,0.0467,0.0541,0.0503,0.0443,0.0408,0.0432,0.042,0.0527,0.0526,0.0526,0.0525,0.0525,-0.0845,-0.0895,-0.0955,-0.1026,-0.1079,-0.1128,-0.1147,-0.1138,-0.111,-0.0996,-0.0881,-0.0647,-0.0379,0.0116,0.0351,0.0567,0.0561,0.0619,0.0614,0.0609,0.057,0.0539,0.0676,0.0676,0.0676,0.0676,0.0676,0,-0.0881,-0.0937,-0.1014,-0.1094,-0.1154,-0.1168,-0.1198,-0.1174,-0.1119,-0.0979,-0.0826,-0.0502,-0.0167,0.0118,0.0467,0.0665,0.0645,0.0694,0.0629,0.0622,0.0616,0.0574,0.0683,0.0684,0.0684,0.0685,0,0,-0.0901,-0.098,-0.1023,-0.113,-0.1183,-0.1225,-0.1232,-0.1168,-0.1059,-0.0893,-0.0712,-0.0485,-0.0143,0.0102,0.035,0.0532,0.0525,0.0548,0.0524,0.0411,0.0403,0.0557,0.0483,0,0,0,0,0]}],[{"header":{"parameterUnit":"m.s-1","parameterCategory":2,"la1":30.2991,"la2":30.254,"lo1":-89.0895,"lo2":-89.0444,"dy":0.0017,"dx":0.0017,"nx":28,"ny":28,"refTime":"2025-01-11T03:00:00:Z","depth":"4","parameterNumber":2,"parameterNumberName":"U-component_of_CURRENTS"},"data":[0,0,0,0,0,0,0,0,0,0,0,0,0,0,0,0,0,0,0,0,0,0,0,0,0,0,0,0,0,0,0,0,0,0,0,0,0,0,0,0,0,0,0,0,0,0,0,0,0,0,0,0,0,0,0,0,0,0,-0.1718,-0.1719,0,-0.1792,-0.1792,-0.1793,-0.1834,-0.1834,-0.1835,-0.1835,-0.1909,-0.1911,-0.1912,0,0,0,0,0,0,0,0,0,0,0,0,0,-0.1626,-0.1627,-0.1718,-0.1719,-0.172,-0.1791,-0.1792,-0.1793,-0.1834,-0.1834,-0.1835,-0.1835,-0.1908,-0.191,-0.1912,0,0,0,0,0,0,0,0,0,0,0,0,0,-0.1678,-0.1628,-0.1718,-0.175,-0.1754,-0.1791,-0.1792,-0.1793,-0.1834,-0.1834,-0.1835,-0.1835,-0.1908,-0.191,-0.1913,-0.1922,0,0,-0.1921,-0.1922,0,0,0,0,0,0,0,0,-0.1675,-0.1681,-0.1744,-0.1748,-0.1752,-0.1805,-0.1787,-0.1837,-0.1834,-0.1802,-0.1835,-0.1835,-0.1875,-0.188,-0.1891,-0.1926,-0.1929,-0.1921,-0.1923,-0.1924,-0.1925,0,0,0,0,0,0,0,-0.1671,-0.1679,-0.1746,-0.1745,-0.175,-0.1765,-0.1773,-0.1797,-0.1835,-0.1805,-0.1808,-0.1818,-0.1877,-0.1889,-0.1894,-0.193,-0.1921,-0.1923,-0.1925,-0.1926,-0.2054,-0.2056,0,0,0,0,0,0,-0.1664,-0.1675,-0.1744,-0.1748,-0.1715,-0.1766,-0.1775,-0.1787,-0.1835,-0.1843,-0.1818,-0.182,-0.1884,-0.189,-0.1896,-0.1982,-0.1924,-0.1926,-0.1928,-0.2052,-0.2054,-0.2056,0,0,0,0,0,0,-0.1662,-0.1669,-0.1741,-0.1714,-0.1724,-0.1768,-0.1781,-0.1788,-0.1829,-0.1845,-0.1852,-0.1854,-0.1885,-0.1893,-0.1948,-0.1982,-0.1927,-0.193,-0.205,-0.2053,-0.2055,-0.2107,0,0,0,0,0,0,-0.1659,-0.1668,-0.1688,-0.1714,-0.1726,-0.1782,-0.1781,-0.1789,-0.1833,-0.1837,-0.1878,-0.1883,-0.1886,-0.1944,-0.1951,-0.1985,-0.1932,-0.2048,-0.2051,-0.2055,-0.2103,-0.2111,-0.2118,0,0,0,0,0,-0.1655,-0.1676,-0.1689,-0.1698,-0.1747,-0.1784,-0.1792,-0.1822,-0.1835,-0.1859,-0.1891,-0.1884,-0.197,-0.1948,-0.1955,-0.1991,-0.2046,-0.205,-0.2054,-0.21,-0.211,-0.2118,0,0,0,0,0,0,-0.1649,-0.1683,-0.1697,-0.1729,-0.1764,-0.1791,-0.182,-0.184,-0.1884,-0.1897,-0.1909,-0.1917,-0.1978,-0.198,-0.1955,-0.2039,-0.2007,-0.2012,-0.2039,-0.2048,-0.2056,-0.2041,-0.1934,0,0,0,0,0,-0.1655,-0.1681,-0.1715,-0.1744,-0.1763,-0.1798,-0.1822,-0.1845,-0.188,-0.1901,-0.1931,-0.1964,-0.1996,-0.2019,-0.2046,-0.2093,-0.2071,-0.2121,-0.2129,-0.2135,-0.213,-0.2138,-0.2145,-0.207,-0.207,-0.207,0,0,-0.1662,-0.1684,-0.1701,-0.1745,-0.1774,-0.1811,-0.1814,-0.1861,-0.1899,-0.1901,-0.1972,-0.1995,-0.2015,-0.2069,-0.2096,-0.2078,-0.2144,-0.214,-0.2146,-0.2136,-0.2143,-0.2149,-0.2156,-0.2073,-0.2072,-0.2072,0,0,-0.1677,-0.1709,-0.1734,-0.1767,-0.1817,-0.1839,-0.1859,-0.1908,-0.1941,-0.2004,-0.2016,-0.206,-0.2117,-0.2134,-0.2148,-0.2215,-0.2185,-0.2231,-0.2259,-0.2267,-0.2273,-0.2277,-0.2247,-0.2249,-0.2234,-0.2234,-0.2234,0,-0.1687,-0.1719,-0.1749,-0.1784,-0.1816,-0.1855,-0.1893,-0.1933,-0.1997,-0.2025,-0.2037,-0.2123,-0.2144,-0.2194,-0.2219,-0.2231,-0.2217,-0.2221,-0.2275,-0.2279,-0.2283,-0.2251,-0.2252,-0.2237,-0.2237,-0.2236,-0.2236,0,-0.1712,-0.1753,-0.1774,-0.1829,-0.1869,-0.1909,-0.1962,-0.2013,-0.2058,-0.209,-0.2163,-0.2195,-0.2238,-0.226,-0.2262,-0.2307,-0.2281,-0.2282,-0.2246,-0.2293,-0.2257,-0.2257,-0.2241,-0.224,-0.2239,-0.2239,0,0,-0.1689,-0.1774,-0.1785,-0.1818,-0.1896,-0.1927,-0.2,-0.2063,-0.2103,-0.2174,-0.2221,-0.2288,-0.2302,-0.2318,-0.2331,-0.2343,-0.2358,-0.2328,-0.2327,-0.2286,-0.235,-0.2188,-0.2172,-0.2372,-0.2373,-0.2374,-0.2309,0,-0.1701,-0.1765,-0.181,-0.188,-0.1916,-0.1981,-0.2038,-0.2104,-0.216,-0.2216,-0.2261,-0.2312,-0.2325,-0.2348,-0.2367,-0.2364,-0.2363,-0.2374,-0.232,-0.2318,-0.2159,-0.2169,-0.2376,-0.2309,-0.2308,-0.2308,-0.2308,0,-0.1701,-0.1746,-0.1814,-0.19,-0.1923,-0.1976,-0.2065,-0.2123,-0.2206,-0.2249,-0.2308,-0.2337,-0.238,-0.2379,-0.2391,-0.2399,-0.2378,-0.2367,-0.2364,-0.2191,-0.2155,-0.2256,-0.2308,-0.2308,-0.2308,-0.2308,-0.2308,0,-0.1649,-0.1745,-0.1799,-0.1831,-0.1935,-0.1985,-0.2045,-0.2135,-0.2178,-0.2267,-0.2297,-0.2357,-0.2381,-0.2387,-0.2373,-0.2388,-0.2356,-0.2371,-0.2199,-0.2187,-0.233,-0.2326,-0.2364,-0.2364,-0.2365,-0.2365,-0.2365,0,-0.1621,-0.1667,-0.1784,-0.1811,-0.1873,-0.1963,-0.2029,-0.2098,-0.2182,-0.2213,-0.2306,-0.232,-0.2387,-0.2381,-0.2368,-0.2263,-0.2351,-0.2187,-0.2158,-0.2352,-0.2352,-0.2328,-0.2325,-0.2362,-0.2363,-0.2363,-0.2364,0,-0.1545,-0.1627,-0.169,-0.181,-0.185,-0.1894,-0.2008,-0.2041,-0.2143,-0.2183,-0.221,-0.2293,-0.2276,-0.23,-0.2289,-0.2225,-0.2164,-0.2106,-0.2281,-0.2267,-0.1989,-0.199,-0.1901,-0.1895,-0.189,-0.1885,-0.1882,0,-0.1507,-0.1535,-0.1665,-0.1698,-0.1756,-0.1837,-0.188,-0.2004,-0.203,-0.2137,-0.2129,-0.2164,-0.2194,-0.2032,-0.2091,-0.2024,-0.2011,-0.1963,-0.2001,-0.1959,-0.1942,-0.1951,-0.1959,-0.1873,-0.1872,-0.187,-0.1869,0,-0.1422,-0.1485,-0.1534,-0.16,-0.166,-0.171,-0.1783,-0.1785,-0.1904,-0.2018,-0.1979,-0.1961,-0.1929,-0.1911,-0.1863,-0.1831,-0.1989,-0.1907,-0.1919,-0.1955,-0.1924,-0.1914,-0.1928,-0.185,-0.1853,-0.1855,-0.1856,0,-0.1356,-0.1367,-0.1437,-0.1476,-0.1547,-0.1551,-0.161,-0.1628,-0.167,-0.1795,-0.1773,-0.1817,-0.1896,-0.1807,-0.177,-0.1713,-0.1699,-0.1655,-0.168,-0.1701,-0.1668,-0.1602,-0.1386,0,0,0,0,0,-0.128,-0.1273,-0.1302,-0.1337,-0.1398,-0.1433,-0.1524,-0.1585,-0.1702,-0.1619,-0.169,-0.1651,-0.1599,-0.1631,-0.1527,-0.1683,-0.1708,-0.1558,-0.1672,-0.1748,-0.1769,-0.1751,0,0,0,0,0,0,-0.1229,-0.1255,-0.1255,-0.1206,-0.12,-0.1246,-0.1296,-0.1378,-0.1341,-0.1467,-0.144,-0.1543,-0.1511,-0.1618,-0.1489,-0.1496,-0.1532,-0.1599,-0.1594,-0.1736,-0.1755,-0.1772,-0.1761,0,0,0,0,0]},{"header":{"parameterUnit":"m.s-1","parameterCategory":2,"la1":30.2991,"la2":30.254,"lo1":-89.0895,"lo2":-89.0444,"dy":0.0017,"dx":0.0017,"nx":28,"ny":28,"refTime":"2025-01-11T03:00:00:Z","depth":"4","parameterNumber":3,"parameterNumberName":"V-component_of_CURRENTS"},"data":[0,0,0,0,0,0,0,0,0,0,0,0,0,0,0,0,0,0,0,0,0,0,0,0,0,0,0,0,0,0,0,0,0,0,0,0,0,0,0,0,0,0,0,0,0,0,0,0,0,0,0,0,0,0,0,0,0,0,-0.0169,-0.0168,0,-0.013,-0.013,-0.0129,-0.0097,-0.0097,-0.0096,-0.0096,-0.0011,-0.0009,-0.0007,0,0,0,0,0,0,0,0,0,0,0,0,0,-0.0181,-0.0181,-0.0169,-0.0168,-0.0168,-0.013,-0.013,-0.0129,-0.0097,-0.0097,-0.0096,-0.0096,-0.0011,-0.0009,-0.0006,0,0,0,0,0,0,0,0,0,0,0,0,0,-0.0161,-0.0181,-0.0169,-0.0148,-0.0146,-0.013,-0.013,-0.0129,-0.0097,-0.0097,-0.0096,-0.0096,-0.0012,-0.0009,-0.0006,0.0005,0,0,0.0003,0.0005,0,0,0,0,0,0,0,0,-0.0162,-0.0161,-0.0152,-0.0149,-0.0147,-0.0119,-0.0102,-0.0082,-0.0097,-0.0115,-0.0096,-0.0096,-0.0043,-0.0038,-0.0031,0.0009,0.0013,0.0004,0.0005,0.0007,0.0008,0,0,0,0,0,0,0,-0.0164,-0.0162,-0.0153,-0.0151,-0.0148,-0.0129,-0.0126,-0.0098,-0.008,-0.0113,-0.0111,-0.0108,-0.0042,-0.0034,-0.0028,0.0014,0.0003,0.0006,0.0008,0.0009,0.0077,0.0077,0,0,0,0,0,0,-0.0173,-0.0164,-0.0154,-0.0151,-0.0155,-0.0129,-0.0126,-0.0128,-0.0081,-0.0075,-0.0109,-0.0107,-0.0039,-0.0032,-0.0025,-0.0014,0.0007,0.001,0.0011,0.0077,0.0077,0.0077,0,0,0,0,0,0,-0.0173,-0.0172,-0.0155,-0.0157,-0.0154,-0.013,-0.0132,-0.0127,-0.0121,-0.0079,-0.0071,-0.0108,-0.0039,-0.0029,-0.0005,-0.001,0.0011,0.0014,0.0077,0.0077,0.0077,0.0011,0,0,0,0,0,0,-0.0174,-0.0173,-0.0179,-0.0158,-0.0154,-0.0154,-0.0132,-0.0127,-0.012,-0.0118,-0.0075,-0.0067,-0.0038,-0.001,-0.0002,-0.0006,0.0016,0.0077,0.0077,0.0077,0.0013,0.0009,0.0005,0,0,0,0,0,-0.0174,-0.0187,-0.018,-0.0179,-0.0163,-0.0155,-0.0151,-0.0132,-0.0121,-0.0124,-0.0094,-0.0068,-0.0005,-0.0008,0.0001,-0.0001,0.0077,0.0077,0.0077,0.0015,0.0009,0.0005,0,0,0,0,0,0,-0.0196,-0.0185,-0.0176,-0.0185,-0.0174,-0.015,-0.0152,-0.0138,-0.0117,-0.0114,-0.0071,-0.0061,-0.0042,-0.0011,-0.0016,0.0019,0.0042,0.0043,-0.0009,-0.0013,-0.0018,-0.0029,0.0019,0,0,0,0,0,-0.0205,-0.0211,-0.0194,-0.0202,-0.0199,-0.0176,-0.0171,-0.0159,-0.0137,-0.0128,-0.0098,-0.0063,-0.0035,-0.0017,0.0011,0.003,0.0069,0.0036,0.0032,0.0028,0.0026,0.0078,0.0078,0.0077,0.0077,0.0077,0,0,-0.0215,-0.021,-0.0213,-0.0207,-0.0196,-0.0202,-0.0172,-0.0171,-0.0172,-0.0121,-0.0114,-0.008,-0.0034,-0.0015,-0.0003,0.001,0.0049,0.0028,0.0024,0.0024,0.0078,0.0078,0.0079,0.0077,0.0077,0.0077,0,0,-0.0243,-0.0235,-0.0251,-0.0247,-0.0238,-0.0224,-0.0226,-0.0206,-0.0194,-0.0183,-0.0145,-0.0115,-0.0075,-0.0041,-0.0019,-0.0027,0.0023,-0.0017,-0.0045,0.0005,0.0006,0.0007,0.0055,0.006,-0.0017,-0.0017,-0.0017,0,-0.0256,-0.0273,-0.0254,-0.0268,-0.0271,-0.0238,-0.0256,-0.0239,-0.0214,-0.0203,-0.0189,-0.0123,-0.0086,-0.0053,-0.0057,-0.0037,-0.0001,-0.0033,-0.0001,0.0001,0.0003,0.0052,0.0059,-0.002,-0.002,-0.0019,-0.0019,0,-0.0293,-0.0308,-0.0318,-0.0325,-0.0325,-0.0334,-0.0312,-0.0304,-0.0284,-0.0262,-0.0229,-0.0176,-0.0135,-0.0117,-0.0091,-0.0058,-0.0036,-0.0016,0.0008,-0.0001,0.0052,0.006,-0.0024,-0.0023,-0.0022,-0.0022,0,0,-0.032,-0.0341,-0.0345,-0.0363,-0.0357,-0.0363,-0.0362,-0.035,-0.0347,-0.0309,-0.0295,-0.024,-0.0205,-0.0176,-0.0131,-0.0085,-0.0041,-0.0051,-0.0047,-0.0011,0.007,0.0055,0.0064,-0.0018,-0.0016,-0.0015,0.01,0,-0.0356,-0.0402,-0.0398,-0.0437,-0.0458,-0.0433,-0.0437,-0.0419,-0.039,-0.0366,-0.0299,-0.0269,-0.0228,-0.0207,-0.0157,-0.0073,-0.0021,-0.0074,0.008,0.0085,0.0067,0.0072,-0.0012,0.0107,0.0109,0.011,0.0111,0,-0.0393,-0.0421,-0.0471,-0.0499,-0.0505,-0.052,-0.0518,-0.0516,-0.0467,-0.0442,-0.0392,-0.0337,-0.0268,-0.0229,-0.0089,-0.0126,-0.0035,0.0036,0.0042,0.0057,0.0086,0.0121,0.0128,0.0126,0.0125,0.0124,0.0123,0,-0.0427,-0.047,-0.0515,-0.0526,-0.0548,-0.0563,-0.0569,-0.0541,-0.0539,-0.0486,-0.0469,-0.0379,-0.033,-0.0214,-0.0075,-0.0079,0.0088,0.0103,0.0182,0.0183,0.0191,0.0189,0.0214,0.0214,0.0213,0.0213,0.0213,0,-0.0464,-0.0501,-0.0538,-0.0564,-0.0613,-0.0609,-0.064,-0.0626,-0.06,-0.0593,-0.0513,-0.0474,-0.0323,-0.0211,-0.0084,0.0069,0.0085,0.0179,0.0211,0.016,0.0154,0.0197,0.0194,0.0217,0.0216,0.0215,0.0215,0,-0.0492,-0.0517,-0.0574,-0.0617,-0.0634,-0.0669,-0.0699,-0.0711,-0.0681,-0.0665,-0.0651,-0.0539,-0.0393,-0.0234,-0.0034,0.0053,0.0205,0.0263,0.0195,0.0222,0.027,0.0262,0.0354,0.0354,0.0355,0.0355,0.0355,0,-0.0509,-0.0543,-0.0618,-0.0658,-0.0683,-0.0731,-0.076,-0.0753,-0.0757,-0.0698,-0.0686,-0.0553,-0.0459,-0.0185,-0.0027,0.0209,0.0245,0.0315,0.0291,0.0262,0.0285,0.0276,0.0268,0.0356,0.0356,0.0356,0.0356,0,-0.054,-0.057,-0.0616,-0.0702,-0.0753,-0.0804,-0.0839,-0.0846,-0.0822,-0.0801,-0.0693,-0.055,-0.0383,-0.0181,0.0001,0.017,0.0255,0.0319,0.032,0.0298,0.0266,0.0286,0.0277,0.0357,0.0357,0.0357,0.0357,0,-0.0556,-0.0598,-0.0663,-0.0732,-0.0803,-0.0849,-0.0867,-0.0852,-0.0845,-0.0769,-0.0732,-0.0545,-0.0437,-0.0199,-0.0031,0.0126,0.0164,0.0204,0.0211,0.0211,0.0127,0.0062,0.012,0,0,0,0,0,-0.0568,-0.0614,-0.0686,-0.0761,-0.0831,-0.0866,-0.0905,-0.0907,-0.0884,-0.081,-0.0766,-0.0602,-0.0345,-0.0233,-0.0074,-0.0038,0.0175,0.0149,0.022,0.0364,0.0363,0.0285,0,0,0,0,0,0,-0.0577,-0.0646,-0.0683,-0.0765,-0.0816,-0.0882,-0.0906,-0.0893,-0.0841,-0.0795,-0.0651,-0.0576,-0.0321,-0.0426,-0.0071,-0.0026,0.0037,0.0272,0.0274,0.0365,0.0364,0.0363,0.0282,0,0,0,0,0]}]]